TimeEDT,TemperatureF,Dew PointF,Humidity,Sea Level PressureIn,VisibilityMPH,Wind Direction,Wind SpeedMPH,Gust SpeedMPH,PrecipitationIn,Events,Conditions,WindDirDegrees,DateUTC
12:53 AM,21.9,14.0,72,29.87,10.0,West,6.9,-,N/A,,Partly Cloudy,280,2013-03-16 04:53:00
1:53 AM,21.9,10.9,63,29.89,10.0,NW,11.5,-,N/A,,Mostly Cloudy,310,2013-03-16 05:53:00
2:53 AM,21.0,10.9,65,29.91,10.0,NW,8.1,-,N/A,,Overcast,310,2013-03-16 06:53:00
3:53 AM,18.0,7.0,62,29.91,10.0,NW,10.4,-,N/A,,Mostly Cloudy,310,2013-03-16 07:53:00
4:53 AM,16.0,5.0,62,29.91,10.0,NW,6.9,-,N/A,,Mostly Cloudy,320,2013-03-16 08:53:00
5:53 AM,14.0,3.9,64,29.93,10.0,NW,5.8,-,N/A,,Clear,320,2013-03-16 09:53:00
6:53 AM,12.0,3.9,70,29.95,10.0,Calm,Calm,-,N/A,,Clear,0,2013-03-16 10:53:00
7:53 AM,10.9,5.0,77,29.96,10.0,Calm,Calm,-,N/A,,Clear,0,2013-03-16 11:53:00
8:53 AM,15.1,3.0,59,29.96,10.0,North,8.1,-,N/A,,Partly Cloudy,350,2013-03-16 12:53:00
9:53 AM,16.0,3.0,57,29.96,10.0,NW,8.1,-,N/A,,Clear,310,2013-03-16 13:53:00
10:53 AM,17.1,3.9,56,29.96,10.0,WNW,6.9,-,N/A,,Clear,300,2013-03-16 14:53:00
11:53 AM,19.0,3.0,50,29.95,10.0,NNW,5.8,-,N/A,,Clear,330,2013-03-16 15:53:00
12:53 PM,19.9,5.0,52,29.96,10.0,Calm,Calm,-,N/A,,Clear,0,2013-03-16 16:53:00
1:53 PM,19.9,5.0,52,29.95,10.0,Variable,5.8,-,N/A,,Partly Cloudy,0,2013-03-16 17:53:00
2:53 PM,19.9,5.0,52,29.94,10.0,West,6.9,-,N/A,,Scattered Clouds,270,2013-03-16 18:53:00
3:53 PM,19.9,5.0,52,29.93,10.0,NW,6.9,-,N/A,,Mostly Cloudy,320,2013-03-16 19:53:00
4:53 PM,19.9,3.9,50,29.93,10.0,NW,6.9,-,N/A,,Overcast,320,2013-03-16 20:53:00
5:53 PM,19.4,3.2,49,29.90,10.0,NW,3.5,-,N/A,,Scattered Clouds,320,2013-03-16 21:53:00
6:53 PM,19.0,1.9,47,29.94,10.0,West,6.9,-,N/A,,Clear,280,2013-03-16 22:53:00
7:53 PM,18.0,1.9,50,29.96,10.0,West,3.5,-,N/A,,Clear,260,2013-03-16 23:53:00
8:53 PM,16.0,1.9,54,29.97,10.0,WSW,4.6,-,N/A,,Clear,250,2013-03-17 00:53:00
9:53 PM,10.0,1.9,70,29.98,10.0,Calm,Calm,-,N/A,,Clear,0,2013-03-17 01:53:00
10:53 PM,10.0,1.9,70,29.99,10.0,Calm,Calm,-,N/A,,Clear,0,2013-03-17 02:53:00
11:53 PM,8.1,1.9,76,29.99,10.0,SSW,3.5,-,N/A,,Clear,210,2013-03-17 03:53:00